Change the Weather History Date:

Sunday, December 22, 2013

  Actual Average (KCYS) Record (KCYS)
Temperature  
Mean Temperature 22 °F 27 °F  
Max Temperature 33 °F 38 °F 61 °F (1896)
Min Temperature 10 °F 17 °F -28 °F (1989)
Degree Days  
Heating Degree Days 44 38  
Month to date heating degree days 824  
Since 1 July heating degree days 2572  
Cooling Degree Days 0 0  
Month to date cooling degree days 0  
Year to date cooling degree days 348  
Moisture  
Dew Point 17 °F    
Average Humidity 82    
Maximum Humidity 93    
Minimum Humidity 52    
Precipitation  
Precipitation 0.00 in 0.01 in 0.36 in (1941)
Month to date precipitation 0.36  
Year to date precipitation 15.81  
Snow  
Snow 0.00 in 0.30 in 4.00 in (1941)
Month to date snowfall 6.2  
Since 1 July snowfall 20.5  
Snow Depth -    
Sea Level Pressure  
Sea Level Pressure 29.99 in    
Wind  
Wind Speed 10 mph (NW)    
Max Wind Speed 29 mph    
Max Gust Speed 37 mph    
Visibility 9 miles    
Events Snow    
T = Trace of Precipitation, MM = Missing Value Source: NWS Daily Summary

Daily Weather History Graph

Daily Weather History Graph

Search for Another Location

Airport or City:

Trip Planner

Search our weather history database for the weather conditions in past years. The results will help you decide how hot, cold, wet, or windy it might be!

Date:

Astronomy

Dec. 22, 2013 Rise Set
Actual Time 7:19 AM MST 4:31 PM MST
Civil Twilight 6:47 AM MST 5:02 PM MST
Nautical Twilight 6:13 AM MST 5:37 PM MST
Astronomical Twilight 5:39 AM MST 6:11 PM MST
Moon 9:49 PM MST (12/22) 10:14 AM MST (12/22)
Length of Visible Light 10h 15m
Length of Day
9h 12m
Waning Gibbous, 76% of the Moon is Illuminated
Dec 22
Waning Gibbous
Dec 25
Last Quarter
Jan 1
New
Jan 7
First Quarter
Jan 15
Full

Hourly Weather History & Observations

Time (MST) Temp. Windchill Dew Point Humidity Pressure Visibility Wind Dir Wind Speed Gust Speed Precip Events Conditions
12:15 AM 23.0 °F 11.1 °F 21.2 °F 93% 29.88 in 10.0 mi NNW 12.7 mph - N/A   Overcast
12:35 AM 23.0 °F 10.6 °F 19.4 °F 86% 29.87 in 10.0 mi NNW 13.8 mph - N/A   Overcast
12:55 AM 21.2 °F 8.9 °F 19.4 °F 93% 29.88 in 10.0 mi NNW 12.7 mph - N/A   Scattered Clouds
1:15 AM 19.4 °F 8.6 °F 17.6 °F 93% 29.88 in 10.0 mi NNW 9.2 mph - N/A   Clear
1:35 AM 17.6 °F 7.3 °F 14.0 °F 86% 29.89 in 10.0 mi NW 8.1 mph - N/A   Clear
1:55 AM 17.6 °F 6.4 °F 14.0 °F 86% 29.90 in 10.0 mi NW 9.2 mph - N/A   Clear
2:15 AM 17.6 °F 5.7 °F 14.0 °F 86% 29.91 in 10.0 mi NW 10.4 mph - N/A   Clear
2:35 AM 15.8 °F 7.2 °F 12.2 °F 86% 29.92 in 10.0 mi NNW 5.8 mph - N/A   Clear
2:55 AM 12.2 °F 2.9 °F 10.4 °F 92% 29.92 in 10.0 mi NW 5.8 mph - N/A   Clear
3:15 AM 14.0 °F 2.0 °F 12.2 °F 93% 29.92 in 10.0 mi NW 9.2 mph - N/A   Clear
3:35 AM 14.0 °F 3.9 °F 12.2 °F 93% 29.92 in 10.0 mi NW 6.9 mph - N/A   Clear
3:55 AM 14.0 °F 3.9 °F 12.2 °F 93% 29.92 in 10.0 mi NNW 6.9 mph - N/A   Clear
4:15 AM 12.2 °F 2.9 °F 10.4 °F 92% 29.93 in 10.0 mi NNW 5.8 mph - N/A   Clear
4:35 AM 10.4 °F 0.8 °F 8.6 °F 92% 29.94 in 10.0 mi West 5.8 mph - N/A   Scattered Clouds
4:55 AM 10.4 °F 0.8 °F 8.6 °F 92% 29.94 in 10.0 mi WSW 5.8 mph - N/A   Mostly Cloudy
5:15 AM 12.2 °F 4.3 °F 10.4 °F 92% 29.95 in 10.0 mi WSW 4.6 mph - N/A   Overcast
5:35 AM 12.2 °F - 10.4 °F 92% 29.95 in 10.0 mi Calm Calm - N/A   Overcast
5:55 AM 14.0 °F - 10.4 °F 86% 29.96 in 10.0 mi Calm Calm - N/A   Overcast
6:15 AM 12.2 °F 4.3 °F 10.4 °F 92% 29.96 in 10.0 mi WSW 4.6 mph - N/A   Overcast
6:35 AM 12.2 °F - 10.4 °F 92% 29.96 in 10.0 mi Calm Calm - N/A   Overcast
6:55 AM 14.0 °F - 10.4 °F 86% 29.97 in 10.0 mi Calm Calm - N/A   Overcast
7:15 AM 14.0 °F 6.5 °F 12.2 °F 93% 29.98 in 10.0 mi West 4.6 mph - N/A   Mostly Cloudy
7:35 AM 14.0 °F 8.2 °F 12.2 °F 93% 29.99 in 10.0 mi West 3.5 mph - N/A   Mostly Cloudy
7:55 AM 17.6 °F 10.7 °F 14.0 °F 86% 29.99 in 10.0 mi West 4.6 mph - N/A   Overcast
8:15 AM 19.4 °F 12.8 °F 15.8 °F 86% 29.98 in 10.0 mi West 4.6 mph - N/A   Overcast
8:35 AM 21.2 °F 14.9 °F 17.6 °F 86% 29.98 in 10.0 mi SSW 4.6 mph 11.5 mph N/A   Overcast
8:55 AM 23.0 °F - 17.6 °F 80% 29.98 in 10.0 mi Calm Calm - N/A   Mostly Cloudy
9:15 AM 23.0 °F 18.4 °F 19.4 °F 86% 29.98 in 10.0 mi South 3.5 mph - N/A   Scattered Clouds
9:35 AM 26.6 °F 20.0 °F 21.2 °F 80% 29.99 in 10.0 mi SW 5.8 mph - N/A   Clear
9:55 AM 28.4 °F 17.5 °F 23.0 °F 80% 29.98 in 10.0 mi WSW 13.8 mph - N/A   Clear
10:15 AM 28.4 °F 18.0 °F 23.0 °F 80% 29.99 in 10.0 mi SW 12.7 mph - N/A   Clear
10:35 AM 28.4 °F 17.0 °F 21.2 °F 74% 29.99 in 10.0 mi SW 15.0 mph - N/A   Mostly Cloudy
10:55 AM 28.4 °F 17.0 °F 21.2 °F 74% 29.98 in 10.0 mi SW 15.0 mph 20.7 mph N/A   Overcast
11:15 AM 30.2 °F 18.9 °F 21.2 °F 69% 29.97 in 10.0 mi SSW 16.1 mph 20.7 mph N/A   Mostly Cloudy
11:35 AM 30.2 °F 18.9 °F 21.2 °F 69% 29.95 in 10.0 mi SW 16.1 mph 19.6 mph N/A   Mostly Cloudy
11:55 AM 30.2 °F 20.2 °F 21.2 °F 69% 29.95 in 10.0 mi SW 12.7 mph - N/A   Overcast
12:15 PM 30.2 °F 19.8 °F 21.2 °F 69% 29.94 in 10.0 mi SSW 13.8 mph - N/A   Overcast
12:35 PM 30.2 °F 19.8 °F 21.2 °F 69% 29.93 in 10.0 mi SSW 13.8 mph - N/A   Overcast
12:55 PM 30.2 °F 19.3 °F 21.2 °F 69% 29.92 in 10.0 mi SW 15.0 mph - N/A   Overcast
1:15 PM 32.0 °F 22.1 °F 21.2 °F 64% 29.91 in 10.0 mi SW 13.8 mph - N/A   Overcast
1:35 PM 32.0 °F 21.6 °F 21.2 °F 64% 29.91 in 10.0 mi SSW 15.0 mph 19.6 mph N/A   Overcast
1:55 PM 32.0 °F 22.1 °F 21.2 °F 64% 29.91 in 10.0 mi SW 13.8 mph - N/A   Overcast
2:15 PM 32.0 °F 23.6 °F 19.4 °F 60% 29.91 in 10.0 mi SSW 10.4 mph - N/A   Overcast
2:35 PM 32.0 °F 23.0 °F 21.2 °F 64% 29.91 in 10.0 mi SSW 11.5 mph - N/A   Overcast
2:55 PM 33.8 °F 22.5 °F 17.6 °F 52% 29.92 in 10.0 mi NW 19.6 mph 24.2 mph N/A   Overcast
3:15 PM 33.8 °F 21.6 °F 17.6 °F 52% 29.93 in 10.0 mi NW 23.0 mph 34.5 mph N/A   Overcast
3:35 PM 33.8 °F 20.5 °F 17.6 °F 52% 29.93 in 10.0 mi WNW 27.6 mph 36.8 mph N/A   Overcast
3:55 PM 33.8 °F 21.6 °F 17.6 °F 52% 29.94 in 10.0 mi NW 23.0 mph 32.2 mph N/A   Overcast
4:15 PM 33.8 °F 20.3 °F 19.4 °F 56% 29.95 in 10.0 mi NW 28.8 mph 36.8 mph N/A   Overcast
4:35 PM 32.0 °F 20.1 °F 21.2 °F 64% 29.95 in 10.0 mi NW 19.6 mph 34.5 mph N/A   Overcast
4:55 PM 32.0 °F 19.5 °F 21.2 °F 64% 29.96 in 10.0 mi NNW 21.9 mph 28.8 mph N/A   Overcast
5:15 PM 28.4 °F 16.2 °F 24.8 °F 86% 29.99 in 2.5 mi North 17.3 mph 21.9 mph N/A Snow Light Snow
5:35 PM 26.6 °F 15.2 °F 23.0 °F 86% 30.00 in 7.0 mi North 13.8 mph - N/A Snow Light Snow
5:55 PM 26.6 °F 15.7 °F 21.2 °F 80% 30.01 in 7.0 mi North 12.7 mph 23.0 mph N/A Snow Light Snow
6:15 PM 24.8 °F 12.4 °F 21.2 °F 86% 30.03 in 5.0 mi North 15.0 mph 20.7 mph N/A Snow Light Snow
6:35 PM 24.8 °F 12.9 °F 21.2 °F 86% 30.05 in 4.0 mi North 13.8 mph 19.6 mph N/A Snow Light Snow
6:55 PM 21.2 °F 6.8 °F 19.4 °F 93% 30.06 in 4.0 mi North 17.3 mph 23.0 mph N/A Snow Light Snow
7:15 PM 21.2 °F 6.8 °F 17.6 °F 86% 30.08 in 5.0 mi North 17.3 mph 21.9 mph N/A Snow Light Snow
7:35 PM 19.4 °F 5.0 °F 17.6 °F 93% 30.10 in 1.8 mi North 16.1 mph - N/A Snow Light Snow
7:55 PM 19.4 °F 6.0 °F 17.6 °F 93% 30.11 in 2.5 mi North 13.8 mph 17.3 mph N/A Snow Light Snow
8:15 PM 19.4 °F 6.0 °F 17.6 °F 93% 30.12 in 2.0 mi North 13.8 mph - N/A Snow Light Snow
8:35 PM 19.4 °F 7.9 °F 17.6 °F 93% 30.12 in 2.5 mi North 10.4 mph - N/A Snow Light Snow
8:55 PM 17.6 °F 6.4 °F 15.8 °F 93% 30.14 in 4.0 mi North 9.2 mph - N/A Snow Light Snow
9:15 PM 17.6 °F 6.4 °F 14.0 °F 86% 30.14 in 7.0 mi North 9.2 mph - N/A Snow Light Snow
9:35 PM 17.6 °F 7.3 °F 14.0 °F 86% 30.15 in 5.0 mi NNE 8.1 mph - N/A Snow Light Snow
9:55 PM 15.8 °F 2.7 °F 12.2 °F 86% 30.15 in 10.0 mi NNE 11.5 mph - N/A   Overcast
10:15 PM 15.8 °F 4.2 °F 12.2 °F 86% 30.17 in 10.0 mi NNE 9.2 mph - N/A   Overcast
10:35 PM 15.8 °F 3.4 °F 12.2 °F 86% 30.17 in 2.0 mi NNE 10.4 mph - N/A Snow Light Snow
10:55 PM 14.0 °F 3.9 °F 12.2 °F 93% 30.17 in 7.0 mi NNE 6.9 mph - N/A   Mostly Cloudy
11:15 PM 14.0 °F 6.5 °F 12.2 °F 93% 30.18 in 10.0 mi NE 4.6 mph - N/A   Overcast
11:35 PM 14.0 °F 3.9 °F 12.2 °F 93% 30.17 in 10.0 mi NE 6.9 mph - N/A   Overcast
11:55 PM 14.0 °F 3.9 °F 12.2 °F 93% 30.18 in 10.0 mi NE 6.9 mph - N/A   Overcast